GDANC EGBJ-EGPJ

Flight info

Callsign GDANC
Flight time 2h 37m
Altitude 2900
Route VIA MANCHESTER LLR KIRKBRIDE VRP MUSSELBURGH VRP KIRCALDY HARBOUR RCOCAS
Aircraft CESS/L-VGD/A

Departure

Time 2026-04-19 16:19
Airport Gloucestershire Airport (EGBJ)

Arrival

Time 2026-04-19 18:56
Airport Fife Airport (EGPJ)
Time Latitude Longitude Altitude Speed Heading
2026-04-19 16:09 51.89292 -2.15825 92 ft 0 kts 137°
2026-04-19 16:13 51.89292 -2.15824 92 ft 1 kts 139°
2026-04-19 16:14 51.89290 -2.15825 94 ft 0 kts 228°
2026-04-19 16:14 51.89273 -2.15829 91 ft 6 kts 172°
2026-04-19 16:14 51.89259 -2.15826 91 ft 0 kts 171°
2026-04-19 16:14 51.89248 -2.15823 91 ft 8 kts 172°
2026-04-19 16:15 51.89194 -2.15809 92 ft 10 kts 172°
2026-04-19 16:15 51.89113 -2.15788 92 ft 12 kts 169°
2026-04-19 16:15 51.89088 -2.15877 90 ft 11 kts 276°
2026-04-19 16:15 51.89081 -2.16020 89 ft 14 kts 267°
2026-04-19 16:16 51.89070 -2.16173 89 ft 13 kts 262°
2026-04-19 16:16 51.89053 -2.16316 91 ft 13 kts 257°
2026-04-19 16:16 51.89034 -2.16444 93 ft 9 kts 258°
2026-04-19 16:16 51.88999 -2.16509 94 ft 11 kts 177°
2026-04-19 16:17 51.88911 -2.16510 95 ft 13 kts 212°
2026-04-19 16:17 51.88863 -2.16626 97 ft 12 kts 257°
2026-04-19 16:17 51.88858 -2.16708 98 ft 0 kts 269°
2026-04-19 16:18 51.88858 -2.16736 98 ft 9 kts 275°
2026-04-19 16:18 51.88915 -2.16755 96 ft 26 kts 33°
2026-04-19 16:18 51.89192 -2.16443 95 ft 68 kts 34°
2026-04-19 16:19 51.89452 -2.16129 218 ft 70 kts 39°
2026-04-19 16:19 51.89829 -2.15606 461 ft 70 kts 39°
2026-04-19 16:19 51.90380 -2.15053 749 ft 76 kts 11°
2026-04-19 16:19 51.90710 -2.14964 954 ft 69 kts
2026-04-19 16:20 51.91233 -2.14900 1170 ft 66 kts
2026-04-19 16:20 51.91877 -2.14868 1369 ft 84 kts
2026-04-19 16:20 51.92241 -2.14839 1631 ft 71 kts
2026-04-19 16:20 51.92888 -2.14791 1903 ft 71 kts
2026-04-19 16:21 51.93219 -2.14793 2016 ft 74 kts 358°
2026-04-19 16:21 51.93770 -2.14766 2216 ft 71 kts
2026-04-19 16:21 51.94296 -2.14720 2397 ft 73 kts
2026-04-19 16:21 51.94775 -2.14685 2622 ft 67 kts 359°
2026-04-19 16:22 51.95288 -2.14703 2723 ft 81 kts
2026-04-19 16:22 51.95920 -2.14649 2678 ft 99 kts
2026-04-19 16:22 51.96627 -2.14617 2666 ft 104 kts
2026-04-19 16:22 51.97357 -2.14582 2670 ft 105 kts
2026-04-19 16:23 51.98088 -2.14555 2667 ft 104 kts
2026-04-19 16:23 51.98808 -2.14570 2662 ft 104 kts
2026-04-19 16:23 51.99518 -2.14569 2660 ft 102 kts
2026-04-19 16:23 52.00226 -2.14584 2661 ft 102 kts
2026-04-19 16:24 52.00928 -2.14577 2660 ft 102 kts
2026-04-19 16:24 52.01643 -2.14542 2663 ft 103 kts
2026-04-19 16:24 52.02366 -2.14513 2664 ft 105 kts
2026-04-19 16:24 52.03099 -2.14497 2660 ft 105 kts
2026-04-19 16:25 52.03829 -2.14483 2675 ft 103 kts
2026-04-19 16:25 52.04554 -2.14474 2672 ft 104 kts
2026-04-19 16:25 52.05267 -2.14451 2668 ft 104 kts
2026-04-19 16:25 52.06006 -2.14430 2674 ft 107 kts
2026-04-19 16:26 52.06749 -2.14419 2674 ft 107 kts
2026-04-19 16:26 52.07496 -2.14400 2676 ft 108 kts
2026-04-19 16:26 52.08250 -2.14378 2677 ft 109 kts
2026-04-19 16:26 52.09009 -2.14363 2672 ft 110 kts
2026-04-19 16:27 52.09765 -2.14351 2667 ft 108 kts
2026-04-19 16:27 52.10516 -2.14334 2671 ft 108 kts
2026-04-19 16:27 52.11272 -2.14312 2674 ft 108 kts
2026-04-19 16:27 52.12024 -2.14300 2673 ft 108 kts
2026-04-19 16:28 52.12773 -2.14301 2676 ft 108 kts
2026-04-19 16:28 52.13525 -2.14299 2670 ft 108 kts
2026-04-19 16:28 52.14265 -2.14284 2672 ft 107 kts
2026-04-19 16:28 52.15018 -2.14280 2670 ft 109 kts
2026-04-19 16:29 52.15768 -2.14267 2667 ft 107 kts
2026-04-19 16:29 52.16510 -2.14258 2669 ft 107 kts
2026-04-19 16:29 52.17255 -2.14243 2670 ft 108 kts
2026-04-19 16:29 52.18004 -2.14228 2669 ft 108 kts
2026-04-19 16:30 52.18753 -2.14209 2662 ft 108 kts
2026-04-19 16:30 52.19496 -2.14181 2664 ft 107 kts
2026-04-19 16:30 52.20241 -2.14176 2666 ft 107 kts
2026-04-19 16:30 52.20978 -2.14168 2667 ft 106 kts 360°
2026-04-19 16:31 52.21718 -2.14147 2668 ft 107 kts
2026-04-19 16:31 52.22461 -2.14127 2664 ft 106 kts
2026-04-19 16:31 52.23192 -2.14119 2672 ft 104 kts
2026-04-19 16:31 52.23932 -2.14114 2633 ft 109 kts
2026-04-19 16:32 52.24698 -2.14114 2537 ft 114 kts
2026-04-19 16:32 52.25492 -2.14107 2434 ft 115 kts
2026-04-19 16:32 52.26289 -2.14100 2333 ft 115 kts
2026-04-19 16:32 52.27070 -2.14095 2308 ft 110 kts
2026-04-19 16:33 52.27825 -2.14088 2303 ft 106 kts
2026-04-19 16:33 52.28553 -2.14077 2301 ft 104 kts
2026-04-19 16:33 52.29273 -2.14067 2297 ft 103 kts
2026-04-19 16:33 52.29980 -2.14058 2300 ft 101 kts
2026-04-19 16:34 52.30687 -2.14035 2304 ft 102 kts
2026-04-19 16:34 52.31393 -2.14014 2306 ft 101 kts
2026-04-19 16:34 52.32106 -2.13993 2303 ft 104 kts
2026-04-19 16:34 52.32810 -2.13986 2304 ft 102 kts 360°
2026-04-19 16:35 52.33524 -2.13974 2297 ft 102 kts
2026-04-19 16:35 52.34222 -2.13953 2302 ft 100 kts
2026-04-19 16:35 52.34916 -2.13944 2302 ft 100 kts 360°
2026-04-19 16:35 52.35609 -2.13914 2301 ft 99 kts
2026-04-19 16:36 52.36299 -2.13841 2304 ft 101 kts
2026-04-19 16:36 52.37002 -2.13790 2308 ft 101 kts
2026-04-19 16:36 52.37715 -2.13732 2314 ft 104 kts
2026-04-19 16:36 52.38438 -2.13668 2302 ft 105 kts
2026-04-19 16:37 52.39165 -2.13640 2311 ft 105 kts
2026-04-19 16:37 52.39896 -2.13608 2308 ft 105 kts
2026-04-19 16:37 52.40628 -2.13566 2302 ft 104 kts
2026-04-19 16:37 52.41347 -2.13563 2298 ft 103 kts 359°
2026-04-19 16:38 52.42073 -2.13571 2302 ft 106 kts 359°
2026-04-19 16:38 52.42806 -2.13579 2301 ft 105 kts 359°
2026-04-19 16:38 52.43531 -2.13592 2300 ft 104 kts 359°
2026-04-19 16:38 52.44254 -2.13617 2294 ft 104 kts 359°
2026-04-19 16:39 52.44971 -2.13607 2298 ft 102 kts
2026-04-19 16:39 52.45675 -2.13585 2295 ft 102 kts
2026-04-19 16:39 52.46375 -2.13561 2290 ft 99 kts
2026-04-19 16:39 52.47072 -2.13565 2298 ft 101 kts
2026-04-19 16:40 52.47769 -2.13564 2294 ft 100 kts
2026-04-19 16:40 52.48462 -2.13565 2296 ft 98 kts
2026-04-19 16:40 52.49146 -2.13577 2297 ft 98 kts 359°
2026-04-19 16:40 52.49836 -2.13579 2301 ft 100 kts
2026-04-19 16:41 52.50537 -2.13586 2300 ft 102 kts
2026-04-19 16:41 52.51248 -2.13584 2294 ft 101 kts 360°
2026-04-19 16:41 52.51943 -2.13583 2302 ft 101 kts 360°
2026-04-19 16:41 52.52640 -2.13565 2300 ft 100 kts 359°
2026-04-19 16:42 52.53337 -2.13553 2296 ft 100 kts 360°
2026-04-19 16:42 52.54040 -2.13540 2300 ft 102 kts 359°
2026-04-19 16:42 52.54752 -2.13520 2304 ft 103 kts
2026-04-19 16:42 52.55475 -2.13480 2299 ft 103 kts 360°
2026-04-19 16:43 52.56187 -2.13459 2299 ft 101 kts 360°
2026-04-19 16:43 52.56884 -2.13453 2300 ft 100 kts
2026-04-19 16:43 52.57581 -2.13445 2307 ft 101 kts
2026-04-19 16:43 52.58279 -2.13425 2308 ft 102 kts 360°
2026-04-19 16:44 52.58998 -2.13417 2308 ft 103 kts
2026-04-19 16:44 52.59708 -2.13411 2309 ft 102 kts 360°
2026-04-19 16:44 52.60408 -2.13582 2301 ft 104 kts 342°
2026-04-19 16:44 52.61103 -2.13960 2307 ft 105 kts 343°
2026-04-19 16:45 52.61794 -2.14336 2299 ft 104 kts 343°
2026-04-19 16:45 52.62475 -2.14698 2299 ft 102 kts 343°
2026-04-19 16:45 52.63151 -2.15065 2300 ft 102 kts 341°
2026-04-19 16:45 52.63783 -2.15635 2300 ft 105 kts 334°
2026-04-19 16:46 52.64435 -2.16175 2302 ft 105 kts 335°
2026-04-19 16:46 52.65093 -2.16726 2300 ft 106 kts 335°
2026-04-19 16:46 52.65750 -2.17282 2298 ft 106 kts 335°
2026-04-19 16:46 52.66407 -2.17835 2296 ft 104 kts 335°
2026-04-19 16:47 52.67050 -2.18384 2295 ft 105 kts 335°
2026-04-19 16:47 52.67682 -2.18927 2295 ft 103 kts 335°
2026-04-19 16:47 52.68310 -2.19474 2292 ft 102 kts 335°
2026-04-19 16:47 52.68936 -2.20017 2296 ft 103 kts 336°
2026-04-19 16:48 52.69590 -2.20521 2299 ft 105 kts 337°
2026-04-19 16:48 52.70256 -2.21039 2302 ft 107 kts 336°
2026-04-19 16:48 52.70930 -2.21571 2300 ft 107 kts 336°
2026-04-19 16:48 52.71602 -2.22098 2300 ft 107 kts 336°
2026-04-19 16:49 52.72260 -2.22624 2301 ft 104 kts 336°
2026-04-19 16:49 52.72904 -2.23136 2300 ft 103 kts 336°
2026-04-19 16:49 52.73549 -2.23657 2292 ft 102 kts 336°
2026-04-19 16:49 52.74181 -2.24173 2292 ft 101 kts 336°
2026-04-19 16:50 52.74824 -2.24684 2296 ft 104 kts 336°
2026-04-19 16:50 52.75484 -2.25185 2296 ft 105 kts 336°
2026-04-19 16:50 52.76143 -2.25689 2294 ft 105 kts 336°
2026-04-19 16:50 52.76816 -2.26203 2296 ft 107 kts 336°
2026-04-19 16:51 52.77485 -2.26743 2297 ft 107 kts 336°
2026-04-19 16:51 52.78140 -2.27282 2290 ft 104 kts 335°
2026-04-19 16:51 52.78780 -2.27806 2294 ft 104 kts 336°
2026-04-19 16:51 52.79436 -2.28344 2293 ft 105 kts 336°
2026-04-19 16:52 52.80087 -2.28869 2290 ft 103 kts 336°
2026-04-19 16:52 52.80730 -2.29371 2288 ft 101 kts 335°
2026-04-19 16:52 52.81378 -2.29865 2289 ft 103 kts 336°
2026-04-19 16:52 52.82037 -2.30365 2293 ft 105 kts 336°
2026-04-19 16:53 52.82706 -2.30871 2292 ft 106 kts 335°
2026-04-19 16:53 52.83373 -2.31379 2289 ft 106 kts 336°
2026-04-19 16:53 52.84044 -2.31895 2293 ft 106 kts 336°
2026-04-19 16:53 52.84698 -2.32420 2289 ft 104 kts 336°
2026-04-19 16:54 52.85335 -2.32957 2286 ft 102 kts 336°
2026-04-19 16:54 52.85970 -2.33477 2294 ft 101 kts 335°
2026-04-19 16:54 52.86607 -2.33993 2290 ft 103 kts 335°
2026-04-19 16:54 52.87242 -2.34510 2295 ft 103 kts 335°
2026-04-19 16:55 52.87888 -2.35029 2291 ft 103 kts 335°
2026-04-19 16:55 52.89179 -2.36051 2300 ft 103 kts 336°
2026-04-19 16:55 52.89814 -2.36574 2298 ft 102 kts 335°
2026-04-19 16:56 52.90466 -2.37082 2300 ft 104 kts 336°
2026-04-19 16:56 52.91132 -2.37580 2298 ft 105 kts 336°
2026-04-19 16:56 52.91792 -2.38054 2293 ft 101 kts 338°
2026-04-19 16:56 52.92437 -2.38512 2293 ft 102 kts 338°
2026-04-19 16:57 52.93091 -2.38972 2296 ft 103 kts 337°
2026-04-19 16:57 52.93749 -2.39437 2296 ft 103 kts 338°
2026-04-19 16:57 52.94408 -2.39920 2299 ft 104 kts 337°
2026-04-19 16:57 52.95066 -2.40389 2297 ft 102 kts 337°
2026-04-19 16:58 52.95706 -2.40838 2299 ft 101 kts 337°
2026-04-19 16:58 52.96349 -2.41290 2295 ft 100 kts 337°
2026-04-19 16:58 52.96989 -2.41739 2294 ft 100 kts 336°
2026-04-19 16:58 52.97611 -2.42227 2293 ft 99 kts 335°
2026-04-19 16:59 52.98242 -2.42746 2292 ft 103 kts 335°
2026-04-19 16:59 52.98876 -2.43260 2303 ft 100 kts 335°
2026-04-19 16:59 52.99510 -2.43766 2299 ft 103 kts 335°
2026-04-19 16:59 53.00154 -2.44282 2300 ft 102 kts 335°
2026-04-19 17:00 53.00791 -2.44785 2295 ft 101 kts 335°
2026-04-19 17:00 53.01434 -2.45275 2242 ft 104 kts 335°
2026-04-19 17:00 53.02113 -2.45773 2120 ft 107 kts 335°
2026-04-19 17:00 53.02789 -2.46276 1993 ft 109 kts 335°
2026-04-19 17:01 53.03478 -2.46801 1866 ft 107 kts 335°
2026-04-19 17:01 53.04155 -2.47339 1737 ft 109 kts 335°
2026-04-19 17:01 53.04829 -2.47867 1708 ft 105 kts 334°
2026-04-19 17:01 53.05484 -2.48361 1702 ft 102 kts 335°
2026-04-19 17:02 53.06120 -2.48836 1700 ft 99 kts 335°
2026-04-19 17:02 53.06742 -2.49317 1697 ft 98 kts 335°
2026-04-19 17:02 53.07346 -2.49786 1697 ft 97 kts 335°
2026-04-19 17:02 53.07939 -2.50267 1700 ft 94 kts 335°
2026-04-19 17:03 53.08551 -2.50772 1607 ft 101 kts 335°
2026-04-19 17:03 53.09200 -2.51289 1515 ft 106 kts 335°
2026-04-19 17:03 53.09880 -2.51823 1407 ft 107 kts 334°
2026-04-19 17:03 53.10557 -2.52335 1305 ft 106 kts 334°
2026-04-19 17:04 53.11232 -2.52826 1215 ft 104 kts 335°
2026-04-19 17:04 53.11863 -2.53295 1210 ft 95 kts 334°
2026-04-19 17:04 53.12470 -2.53746 1204 ft 97 kts 334°
2026-04-19 17:04 53.13081 -2.54198 1207 ft 96 kts 336°
2026-04-19 17:05 53.13688 -2.54662 1205 ft 97 kts 336°
2026-04-19 17:05 53.14294 -2.55131 1211 ft 95 kts 336°
2026-04-19 17:05 53.14889 -2.55579 1214 ft 95 kts 336°
2026-04-19 17:05 53.15490 -2.56033 1210 ft 95 kts 336°
2026-04-19 17:06 53.16088 -2.56494 1209 ft 93 kts 335°
2026-04-19 17:06 53.16675 -2.56907 1206 ft 92 kts 348°
2026-04-19 17:06 53.17326 -2.56855 1214 ft 95 kts 356°
2026-04-19 17:06 53.17995 -2.56831 1224 ft 98 kts 357°
2026-04-19 17:07 53.18683 -2.56843 1210 ft 101 kts 356°
2026-04-19 17:07 53.19384 -2.56886 1206 ft 100 kts 356°
2026-04-19 17:07 53.20083 -2.56926 1209 ft 102 kts 355°
2026-04-19 17:07 53.20798 -2.56973 1208 ft 103 kts 356°
2026-04-19 17:08 53.21512 -2.57011 1196 ft 103 kts 356°
2026-04-19 17:08 53.22225 -2.57035 1202 ft 103 kts 355°
2026-04-19 17:08 53.22951 -2.57054 1198 ft 106 kts 357°
2026-04-19 17:08 53.23689 -2.57123 1195 ft 105 kts 358°
2026-04-19 17:09 53.24409 -2.57114 1192 ft 104 kts 358°
2026-04-19 17:09 53.24889 -2.57095 1197 ft 105 kts 358°
2026-04-19 17:09 53.25613 -2.57055 1188 ft 103 kts 357°
2026-04-19 17:09 53.26317 -2.57024 1194 ft 101 kts 358°
2026-04-19 17:10 53.27262 -2.57005 1200 ft 104 kts 358°
2026-04-19 17:10 53.27751 -2.57007 1198 ft 104 kts 358°
2026-04-19 17:10 53.28702 -2.56996 1199 ft 102 kts 358°
2026-04-19 17:10 53.29185 -2.56991 1197 ft 103 kts 358°
2026-04-19 17:11 53.29885 -2.56993 1198 ft 100 kts 358°
2026-04-19 17:11 53.30589 -2.56958 1198 ft 102 kts 359°
2026-04-19 17:11 53.31304 -2.56927 1208 ft 104 kts 359°
2026-04-19 17:11 53.32030 -2.56929 1200 ft 103 kts 357°
2026-04-19 17:12 53.32752 -2.56957 1197 ft 103 kts 356°
2026-04-19 17:12 53.33468 -2.56965 1199 ft 103 kts 358°
2026-04-19 17:12 53.34180 -2.56936 1205 ft 104 kts 357°
2026-04-19 17:12 53.34911 -2.56892 1202 ft 104 kts
2026-04-19 17:13 53.35626 -2.56889 1197 ft 104 kts 356°
2026-04-19 17:13 53.36347 -2.56870 1200 ft 104 kts 359°
2026-04-19 17:13 53.37076 -2.56864 1198 ft 104 kts 358°
2026-04-19 17:13 53.37802 -2.56842 1201 ft 104 kts 359°
2026-04-19 17:14 53.38528 -2.56762 1201 ft 104 kts
2026-04-19 17:14 53.39251 -2.56676 1206 ft 104 kts
2026-04-19 17:14 53.39984 -2.56609 1208 ft 106 kts 358°
2026-04-19 17:14 53.40719 -2.56555 1201 ft 105 kts 360°
2026-04-19 17:15 53.41441 -2.56490 1196 ft 105 kts 359°
2026-04-19 17:15 53.42165 -2.56410 1203 ft 104 kts
2026-04-19 17:15 53.42900 -2.56334 1207 ft 106 kts 359°
2026-04-19 17:15 53.43628 -2.56245 1200 ft 103 kts
2026-04-19 17:16 53.44347 -2.56188 1197 ft 104 kts 360°
2026-04-19 17:16 53.45080 -2.56119 1203 ft 107 kts
2026-04-19 17:16 53.45820 -2.56057 1201 ft 105 kts
2026-04-19 17:16 53.46541 -2.56013 1201 ft 102 kts 360°
2026-04-19 17:17 53.47248 -2.55949 1190 ft 102 kts
2026-04-19 17:17 53.47941 -2.55875 1189 ft 100 kts
2026-04-19 17:17 53.48638 -2.55794 1191 ft 102 kts
2026-04-19 17:17 53.49352 -2.55726 1203 ft 104 kts
2026-04-19 17:18 53.50090 -2.55643 1209 ft 108 kts
2026-04-19 17:18 53.50835 -2.55454 1211 ft 110 kts
2026-04-19 17:18 53.51595 -2.55181 1206 ft 111 kts
2026-04-19 17:18 53.52341 -2.54912 1204 ft 108 kts
2026-04-19 17:19 53.53072 -2.54659 1200 ft 109 kts
2026-04-19 17:19 53.53807 -2.54405 1327 ft 107 kts
2026-04-19 17:19 53.54532 -2.54172 1462 ft 105 kts
2026-04-19 17:19 53.55243 -2.53956 1593 ft 103 kts
2026-04-19 17:20 53.55960 -2.53743 1733 ft 105 kts
2026-04-19 17:20 53.56673 -2.53486 1836 ft 105 kts
2026-04-19 17:20 53.57384 -2.53244 1995 ft 103 kts
2026-04-19 17:20 53.58084 -2.53013 2152 ft 102 kts
2026-04-19 17:21 53.58788 -2.52782 2303 ft 103 kts
2026-04-19 17:21 53.59474 -2.52631 2450 ft 100 kts
2026-04-19 17:21 53.60157 -2.52514 2607 ft 97 kts
2026-04-19 17:21 53.60823 -2.52416 2770 ft 96 kts
2026-04-19 17:22 53.61493 -2.52314 2918 ft 96 kts
2026-04-19 17:22 53.62152 -2.52226 3070 ft 95 kts
2026-04-19 17:22 53.62825 -2.52158 3236 ft 98 kts
2026-04-19 17:22 53.63507 -2.52081 3396 ft 98 kts
2026-04-19 17:23 53.64200 -2.52009 3503 ft 103 kts
2026-04-19 17:23 53.64939 -2.51999 3504 ft 106 kts 353°
2026-04-19 17:23 53.65671 -2.52193 3504 ft 108 kts 349°
2026-04-19 17:23 53.66396 -2.52434 3505 ft 107 kts 349°
2026-04-19 17:24 53.67138 -2.52673 3502 ft 110 kts 349°
2026-04-19 17:24 53.67892 -2.52925 3504 ft 110 kts 348°
2026-04-19 17:24 53.68637 -2.53228 3504 ft 110 kts 347°
2026-04-19 17:24 53.69372 -2.53529 3496 ft 106 kts 348°
2026-04-19 17:25 53.70073 -2.53826 3498 ft 104 kts 348°
2026-04-19 17:25 53.70776 -2.54104 3497 ft 103 kts 347°
2026-04-19 17:25 53.71479 -2.54371 3506 ft 104 kts 348°
2026-04-19 17:25 53.72191 -2.54660 3503 ft 106 kts 348°
2026-04-19 17:26 53.72910 -2.54954 3498 ft 105 kts 347°
2026-04-19 17:26 53.73621 -2.55234 3500 ft 106 kts 348°
2026-04-19 17:26 53.74343 -2.55514 3506 ft 105 kts 348°
2026-04-19 17:26 53.75044 -2.55799 3500 ft 103 kts 348°
2026-04-19 17:27 53.75741 -2.56077 3494 ft 104 kts 348°
2026-04-19 17:27 53.76441 -2.56354 3504 ft 104 kts 348°
2026-04-19 17:27 53.77156 -2.56637 3504 ft 106 kts 348°
2026-04-19 17:27 53.77877 -2.56949 3503 ft 108 kts 345°
2026-04-19 17:28 53.78586 -2.57307 3497 ft 105 kts 345°
2026-04-19 17:28 53.79283 -2.57668 3500 ft 104 kts 343°
2026-04-19 17:28 53.79965 -2.58071 3499 ft 103 kts 343°
2026-04-19 17:28 53.80639 -2.58474 3487 ft 103 kts 342°
2026-04-19 17:29 53.81307 -2.58865 3501 ft 101 kts 343°
2026-04-19 17:29 53.81962 -2.59252 3493 ft 102 kts 342°
2026-04-19 17:29 53.82648 -2.59645 3492 ft 105 kts 342°
2026-04-19 17:29 53.83345 -2.60050 3504 ft 106 kts 343°
2026-04-19 17:30 53.84045 -2.60463 3499 ft 107 kts 342°
2026-04-19 17:30 53.84742 -2.60875 3507 ft 105 kts 342°
2026-04-19 17:30 53.85433 -2.61291 3503 ft 105 kts 342°
2026-04-19 17:30 53.86123 -2.61696 3498 ft 105 kts 343°
2026-04-19 17:31 53.86818 -2.62125 3494 ft 107 kts 341°
2026-04-19 17:31 53.87511 -2.62550 3490 ft 106 kts 342°
2026-04-19 17:31 53.88210 -2.62982 3487 ft 107 kts 342°
2026-04-19 17:31 53.88902 -2.63426 3489 ft 106 kts 341°
2026-04-19 17:32 53.89591 -2.63866 3495 ft 105 kts 342°
2026-04-19 17:32 53.90266 -2.64311 3489 ft 103 kts 342°
2026-04-19 17:32 53.90924 -2.64752 3488 ft 102 kts 341°
2026-04-19 17:32 53.91594 -2.65143 3489 ft 102 kts 347°
2026-04-19 17:33 53.92261 -2.65508 3497 ft 102 kts 344°
2026-04-19 17:33 53.92949 -2.65873 3503 ft 105 kts 345°
2026-04-19 17:33 53.93657 -2.66262 3506 ft 108 kts 346°
2026-04-19 17:33 53.94364 -2.66676 3502 ft 109 kts 345°
2026-04-19 17:34 53.95082 -2.67085 3505 ft 109 kts 344°
2026-04-19 17:34 53.95802 -2.67495 3510 ft 110 kts 345°
2026-04-19 17:34 53.96518 -2.67909 3500 ft 110 kts 345°
2026-04-19 17:34 53.97244 -2.68289 3500 ft 107 kts 345°
2026-04-19 17:35 53.97962 -2.68650 3502 ft 108 kts 346°
2026-04-19 17:35 53.98679 -2.69011 3504 ft 108 kts 347°
2026-04-19 17:35 53.99391 -2.69408 3501 ft 107 kts 345°
2026-04-19 17:35 54.00101 -2.69813 3504 ft 107 kts 346°
2026-04-19 17:36 54.00796 -2.70211 3493 ft 104 kts 345°
2026-04-19 17:36 54.01483 -2.70590 3499 ft 103 kts 345°
2026-04-19 17:36 54.02161 -2.70965 3487 ft 104 kts 345°
2026-04-19 17:36 54.02845 -2.71351 3484 ft 104 kts 345°
2026-04-19 17:37 54.03538 -2.71734 3489 ft 105 kts 345°
2026-04-19 17:37 54.04237 -2.72123 3495 ft 105 kts 345°
2026-04-19 17:37 54.04932 -2.72514 3489 ft 105 kts 345°
2026-04-19 17:37 54.05623 -2.72894 3497 ft 105 kts 345°
2026-04-19 17:38 54.06316 -2.73286 3492 ft 105 kts 345°
2026-04-19 17:38 54.07015 -2.73689 3494 ft 107 kts 345°
2026-04-19 17:38 54.07727 -2.74074 3494 ft 108 kts 345°
2026-04-19 17:38 54.08450 -2.74461 3496 ft 110 kts 346°
2026-04-19 17:39 54.09170 -2.74864 3504 ft 108 kts 344°
2026-04-19 17:39 54.09881 -2.75250 3504 ft 106 kts 345°
2026-04-19 17:39 54.10590 -2.75640 3500 ft 106 kts 345°
2026-04-19 17:39 54.11292 -2.76026 3497 ft 106 kts 345°
2026-04-19 17:40 54.11982 -2.76413 3488 ft 105 kts 344°
2026-04-19 17:40 54.12683 -2.76792 3492 ft 105 kts 345°
2026-04-19 17:40 54.13380 -2.77175 3494 ft 105 kts 344°
2026-04-19 17:40 54.14067 -2.77535 3494 ft 105 kts 345°
2026-04-19 17:41 54.14761 -2.77913 3502 ft 104 kts 346°
2026-04-19 17:41 54.15449 -2.78301 3498 ft 104 kts 345°
2026-04-19 17:41 54.16134 -2.78688 3498 ft 103 kts 344°
2026-04-19 17:41 54.16810 -2.79079 3498 ft 103 kts 345°
2026-04-19 17:42 54.17494 -2.79458 3496 ft 104 kts 344°
2026-04-19 17:42 54.18187 -2.79833 3496 ft 104 kts 345°
2026-04-19 17:42 54.18874 -2.80226 3498 ft 104 kts 344°
2026-04-19 17:42 54.19565 -2.80612 3496 ft 104 kts 345°
2026-04-19 17:43 54.20248 -2.81001 3504 ft 104 kts 344°
2026-04-19 17:43 54.20937 -2.81372 3502 ft 103 kts 345°
2026-04-19 17:43 54.21614 -2.81758 3507 ft 103 kts 345°
2026-04-19 17:43 54.22293 -2.82143 3504 ft 103 kts 345°
2026-04-19 17:44 54.22979 -2.82517 3506 ft 104 kts 345°
2026-04-19 17:44 54.23672 -2.82890 3506 ft 105 kts 345°
2026-04-19 17:44 54.24375 -2.83263 3507 ft 105 kts 345°
2026-04-19 17:44 54.25063 -2.83661 3505 ft 103 kts 344°
2026-04-19 17:45 54.25728 -2.84065 3502 ft 102 kts 343°
2026-04-19 17:45 54.26410 -2.84467 3507 ft 105 kts 344°
2026-04-19 17:45 54.27100 -2.84892 3506 ft 105 kts 344°
2026-04-19 17:45 54.27784 -2.85317 3506 ft 106 kts 343°
2026-04-19 17:46 54.28484 -2.85728 3499 ft 107 kts 343°
2026-04-19 17:46 54.29188 -2.86143 3502 ft 108 kts 345°
2026-04-19 17:46 54.29897 -2.86569 3504 ft 108 kts 344°
2026-04-19 17:46 54.30606 -2.86992 3501 ft 107 kts 343°
2026-04-19 17:47 54.31310 -2.87408 3499 ft 107 kts 344°
2026-04-19 17:47 54.31998 -2.87832 3498 ft 106 kts 343°
2026-04-19 17:47 54.32693 -2.88254 3499 ft 105 kts 343°
2026-04-19 17:47 54.33389 -2.88672 3498 ft 106 kts 344°
2026-04-19 17:48 54.34081 -2.89093 3497 ft 106 kts 343°
2026-04-19 17:48 54.34777 -2.89511 3496 ft 106 kts 343°
2026-04-19 17:48 54.35477 -2.89925 3500 ft 106 kts 343°
2026-04-19 17:48 54.36179 -2.90350 3498 ft 108 kts 343°
2026-04-19 17:49 54.36887 -2.90776 3503 ft 108 kts 343°
2026-04-19 17:49 54.37590 -2.91208 3499 ft 107 kts 343°
2026-04-19 17:49 54.38288 -2.91639 3499 ft 107 kts 343°
2026-04-19 17:49 54.38992 -2.92065 3500 ft 108 kts 343°
2026-04-19 17:50 54.39705 -2.92498 3500 ft 110 kts 343°
2026-04-19 17:50 54.40425 -2.92918 3494 ft 108 kts 344°
2026-04-19 17:50 54.41127 -2.93322 3498 ft 105 kts 344°
2026-04-19 17:50 54.41817 -2.93714 3498 ft 105 kts 346°
2026-04-19 17:51 54.42521 -2.94094 3502 ft 107 kts 345°
2026-04-19 17:51 54.43235 -2.94481 3500 ft 109 kts 345°
2026-04-19 17:51 54.43957 -2.94872 3493 ft 107 kts 345°
2026-04-19 17:51 54.44660 -2.95264 3496 ft 105 kts 344°
2026-04-19 17:52 54.45354 -2.95627 3495 ft 104 kts 346°
2026-04-19 17:52 54.46035 -2.95988 3492 ft 103 kts 346°
2026-04-19 17:52 54.46725 -2.96348 3492 ft 102 kts 345°
2026-04-19 17:52 54.47382 -2.96664 3494 ft 95 kts 345°
2026-04-19 17:53 54.48001 -2.96962 3500 ft 92 kts 346°
2026-04-19 17:53 54.48643 -2.97277 3505 ft 99 kts 344°
2026-04-19 17:53 54.49310 -2.97599 3505 ft 99 kts 346°
2026-04-19 17:53 54.49975 -2.97936 3510 ft 102 kts 345°
2026-04-19 17:54 54.50674 -2.98295 3486 ft 101 kts 345°
2026-04-19 17:54 54.51345 -2.98660 3507 ft 104 kts 345°
2026-04-19 17:54 54.52051 -2.99023 3503 ft 107 kts 345°
2026-04-19 17:54 54.52731 -2.99372 3487 ft 93 kts 345°
2026-04-19 17:55 54.53349 -2.99683 3510 ft 98 kts 344°
2026-04-19 17:55 54.54030 -3.00042 3509 ft 105 kts 345°
2026-04-19 17:55 54.54709 -3.00400 3502 ft 101 kts 345°
2026-04-19 17:55 54.55388 -3.00729 3510 ft 103 kts 345°
2026-04-19 17:56 54.56047 -3.01037 3510 ft 96 kts 346°
2026-04-19 17:56 54.56702 -3.01352 3516 ft 100 kts 345°
2026-04-19 17:56 54.57378 -3.01666 3508 ft 99 kts 345°
2026-04-19 17:56 54.58054 -3.01981 3518 ft 105 kts 346°
2026-04-19 17:57 54.58779 -3.02327 3505 ft 109 kts 346°
2026-04-19 17:57 54.59493 -3.02718 3506 ft 106 kts 342°
2026-04-19 17:57 54.59962 -3.02985 3509 ft 109 kts 342°
2026-04-19 17:57 54.60924 -3.03599 3508 ft 110 kts 341°
2026-04-19 17:58 54.61394 -3.03908 3503 ft 109 kts 340°
2026-04-19 17:58 54.62101 -3.04378 3493 ft 108 kts 340°
2026-04-19 17:58 54.62787 -3.04831 3484 ft 103 kts 341°
2026-04-19 17:58 54.63446 -3.05290 3498 ft 101 kts 342°
2026-04-19 17:59 54.64121 -3.05754 3504 ft 107 kts 341°
2026-04-19 17:59 54.64832 -3.06218 3495 ft 109 kts 342°
2026-04-19 17:59 54.65541 -3.06640 3497 ft 108 kts 342°
2026-04-19 17:59 54.66243 -3.07052 3499 ft 108 kts 342°
2026-04-19 18:00 54.66955 -3.07472 3495 ft 107 kts 342°
2026-04-19 18:00 54.67648 -3.07871 3495 ft 102 kts 343°
2026-04-19 18:00 54.68313 -3.08272 3492 ft 99 kts 342°
2026-04-19 18:00 54.68968 -3.08667 3503 ft 101 kts 342°
2026-04-19 18:01 54.69642 -3.09073 3497 ft 102 kts 342°
2026-04-19 18:01 54.70323 -3.09478 3499 ft 105 kts 342°
2026-04-19 18:01 54.71013 -3.09897 3501 ft 104 kts 342°
2026-04-19 18:01 54.71708 -3.10308 3497 ft 106 kts 342°
2026-04-19 18:02 54.72408 -3.10706 3495 ft 108 kts 342°
2026-04-19 18:02 54.73116 -3.11109 3495 ft 106 kts 342°
2026-04-19 18:02 54.73815 -3.11506 3490 ft 104 kts 342°
2026-04-19 18:02 54.74508 -3.11900 3494 ft 105 kts 342°
2026-04-19 18:03 54.75202 -3.12296 3496 ft 105 kts 342°
2026-04-19 18:03 54.75898 -3.12695 3490 ft 105 kts 342°
2026-04-19 18:03 54.76590 -3.13092 3492 ft 106 kts 342°
2026-04-19 18:03 54.77285 -3.13493 3492 ft 105 kts 342°
2026-04-19 18:04 54.77979 -3.13895 3491 ft 105 kts 342°
2026-04-19 18:04 54.78671 -3.14292 3492 ft 104 kts 342°
2026-04-19 18:04 54.79356 -3.14686 3498 ft 104 kts 342°
2026-04-19 18:04 54.80043 -3.15088 3489 ft 104 kts 342°
2026-04-19 18:05 54.80733 -3.15490 3490 ft 105 kts 342°
2026-04-19 18:05 54.81429 -3.15891 3484 ft 106 kts 342°
2026-04-19 18:05 54.82118 -3.16295 3484 ft 106 kts 342°
2026-04-19 18:05 54.82814 -3.16705 3490 ft 105 kts 342°
2026-04-19 18:06 54.83510 -3.17112 3490 ft 106 kts 342°
2026-04-19 18:06 54.84206 -3.17524 3484 ft 105 kts 342°
2026-04-19 18:06 54.84901 -3.17930 3483 ft 105 kts 342°
2026-04-19 18:06 54.85600 -3.18338 3485 ft 106 kts 342°
2026-04-19 18:07 54.87001 -3.19173 3481 ft 106 kts 342°
2026-04-19 18:07 54.87692 -3.19592 3485 ft 105 kts 342°
2026-04-19 18:07 54.88398 -3.19856 3492 ft 105 kts
2026-04-19 18:08 54.89123 -3.19747 3495 ft 105 kts
2026-04-19 18:08 54.89860 -3.19693 3493 ft 106 kts
2026-04-19 18:08 54.90593 -3.19616 3494 ft 105 kts
2026-04-19 18:08 54.91329 -3.19539 3494 ft 106 kts
2026-04-19 18:09 54.92066 -3.19463 3489 ft 106 kts
2026-04-19 18:09 54.92794 -3.19380 3492 ft 107 kts
2026-04-19 18:09 54.93534 -3.19300 3491 ft 106 kts
2026-04-19 18:09 54.94273 -3.19224 3489 ft 106 kts
2026-04-19 18:10 54.95007 -3.19144 3488 ft 105 kts
2026-04-19 18:10 54.95741 -3.19074 3488 ft 106 kts
2026-04-19 18:10 54.96468 -3.18998 3491 ft 105 kts
2026-04-19 18:10 54.97200 -3.18927 3495 ft 105 kts
2026-04-19 18:11 54.97931 -3.18854 3492 ft 105 kts
2026-04-19 18:11 54.98657 -3.18780 3493 ft 105 kts
2026-04-19 18:11 54.99385 -3.18704 3490 ft 105 kts
2026-04-19 18:11 55.00111 -3.18632 3490 ft 104 kts
2026-04-19 18:12 55.00833 -3.18560 3490 ft 104 kts
2026-04-19 18:12 55.01558 -3.18490 3492 ft 104 kts
2026-04-19 18:12 55.02281 -3.18417 3490 ft 104 kts
2026-04-19 18:12 55.03001 -3.18334 3490 ft 104 kts
2026-04-19 18:13 55.03723 -3.18268 3489 ft 104 kts
2026-04-19 18:13 55.04437 -3.18173 3490 ft 105 kts
2026-04-19 18:13 55.05161 -3.18025 3494 ft 105 kts
2026-04-19 18:13 55.05893 -3.17882 3494 ft 106 kts
2026-04-19 18:14 55.06629 -3.17733 3495 ft 106 kts
2026-04-19 18:14 55.07363 -3.17587 3494 ft 106 kts
2026-04-19 18:14 55.08098 -3.17450 3493 ft 106 kts
2026-04-19 18:14 55.08830 -3.17319 3492 ft 106 kts
2026-04-19 18:15 55.09559 -3.17178 3493 ft 105 kts
2026-04-19 18:15 55.10283 -3.17026 3492 ft 104 kts
2026-04-19 18:15 55.10998 -3.16882 3494 ft 105 kts
2026-04-19 18:15 55.11727 -3.16736 3491 ft 105 kts
2026-04-19 18:16 55.12459 -3.16638 3489 ft 106 kts
2026-04-19 18:16 55.13194 -3.16536 3491 ft 105 kts
2026-04-19 18:16 55.13922 -3.16442 3492 ft 105 kts
2026-04-19 18:16 55.14656 -3.16348 3493 ft 106 kts
2026-04-19 18:17 55.15382 -3.16248 3497 ft 106 kts
2026-04-19 18:17 55.16119 -3.16149 3494 ft 106 kts
2026-04-19 18:17 55.16848 -3.16052 3494 ft 105 kts
2026-04-19 18:17 55.17572 -3.15958 3496 ft 104 kts
2026-04-19 18:18 55.18296 -3.15856 3491 ft 105 kts
2026-04-19 18:18 55.19026 -3.15759 3496 ft 106 kts
2026-04-19 18:18 55.19758 -3.15650 3497 ft 105 kts
2026-04-19 18:18 55.20493 -3.15548 3497 ft 106 kts
2026-04-19 18:19 55.21232 -3.15448 3501 ft 107 kts
2026-04-19 18:19 55.21971 -3.15346 3502 ft 107 kts
2026-04-19 18:19 55.22709 -3.15245 3495 ft 105 kts
2026-04-19 18:19 55.23437 -3.15126 3491 ft 104 kts
2026-04-19 18:20 55.24152 -3.15002 3489 ft 103 kts
2026-04-19 18:20 55.24860 -3.14874 3498 ft 103 kts
2026-04-19 18:20 55.25571 -3.14744 3499 ft 104 kts
2026-04-19 18:20 55.26295 -3.14611 3497 ft 104 kts
2026-04-19 18:21 55.27010 -3.14478 3499 ft 103 kts
2026-04-19 18:21 55.27732 -3.14345 3497 ft 104 kts
2026-04-19 18:21 55.28453 -3.14213 3499 ft 104 kts
2026-04-19 18:21 55.29173 -3.14083 3502 ft 105 kts
2026-04-19 18:22 55.29903 -3.13952 3506 ft 106 kts
2026-04-19 18:22 55.30639 -3.13827 3502 ft 105 kts
2026-04-19 18:22 55.31356 -3.13700 3508 ft 105 kts
2026-04-19 18:22 55.32094 -3.13572 3509 ft 108 kts
2026-04-19 18:23 55.32837 -3.13448 3498 ft 106 kts
2026-04-19 18:23 55.33565 -3.13324 3496 ft 104 kts
2026-04-19 18:23 55.34289 -3.13198 3496 ft 105 kts
2026-04-19 18:23 55.35015 -3.13068 3495 ft 105 kts
2026-04-19 18:24 55.35742 -3.12934 3498 ft 105 kts
2026-04-19 18:24 55.36473 -3.12811 3499 ft 105 kts
2026-04-19 18:24 55.37206 -3.12731 3490 ft 107 kts
2026-04-19 18:24 55.37958 -3.12649 3441 ft 110 kts
2026-04-19 18:25 55.38714 -3.12565 3385 ft 111 kts
2026-04-19 18:25 55.39495 -3.12476 3330 ft 113 kts
2026-04-19 18:25 55.40277 -3.12382 3283 ft 112 kts
2026-04-19 18:25 55.41055 -3.12299 3231 ft 112 kts
2026-04-19 18:26 55.41844 -3.12216 3181 ft 115 kts
2026-04-19 18:26 55.42639 -3.12135 3134 ft 114 kts
2026-04-19 18:26 55.43427 -3.12050 3076 ft 114 kts
2026-04-19 18:26 55.44214 -3.11904 3013 ft 112 kts
2026-04-19 18:27 55.44973 -3.11775 2967 ft 110 kts
2026-04-19 18:27 55.45744 -3.11640 2905 ft 112 kts
2026-04-19 18:27 55.46502 -3.11492 2903 ft 108 kts
2026-04-19 18:27 55.47234 -3.11364 2896 ft 102 kts
2026-04-19 18:28 55.47931 -3.11247 2892 ft 98 kts
2026-04-19 18:28 55.48625 -3.11121 2901 ft 103 kts
2026-04-19 18:28 55.49346 -3.10956 2892 ft 105 kts
2026-04-19 18:28 55.50057 -3.10797 2902 ft 106 kts
2026-04-19 18:29 55.50798 -3.10638 2905 ft 108 kts
2026-04-19 18:29 55.51540 -3.10479 2896 ft 107 kts
2026-04-19 18:29 55.52282 -3.10330 2906 ft 108 kts
2026-04-19 18:29 55.53030 -3.10186 2896 ft 106 kts
2026-04-19 18:30 55.53757 -3.10046 2893 ft 105 kts
2026-04-19 18:30 55.54496 -3.09905 2900 ft 107 kts
2026-04-19 18:30 55.55237 -3.09782 2899 ft 107 kts
2026-04-19 18:30 55.55977 -3.09657 2891 ft 106 kts
2026-04-19 18:31 55.56701 -3.09523 2893 ft 104 kts
2026-04-19 18:31 55.57424 -3.09391 2891 ft 105 kts
2026-04-19 18:31 55.58137 -3.09257 2892 ft 103 kts
2026-04-19 18:31 55.58848 -3.09123 2893 ft 104 kts
2026-04-19 18:32 55.59569 -3.08987 2891 ft 103 kts
2026-04-19 18:32 55.60276 -3.08846 2888 ft 101 kts
2026-04-19 18:32 55.60973 -3.08708 2890 ft 101 kts
2026-04-19 18:32 55.61681 -3.08572 2891 ft 103 kts
2026-04-19 18:33 55.62396 -3.08440 2889 ft 104 kts
2026-04-19 18:33 55.63135 -3.08310 2858 ft 109 kts
2026-04-19 18:33 55.63905 -3.08171 2812 ft 111 kts
2026-04-19 18:33 55.64677 -3.08032 2762 ft 109 kts
2026-04-19 18:34 55.65401 -3.07903 2783 ft 99 kts
2026-04-19 18:34 55.66057 -3.07784 2835 ft 95 kts
2026-04-19 18:34 55.66725 -3.07660 2885 ft 97 kts
2026-04-19 18:34 55.67390 -3.07533 2930 ft 95 kts
2026-04-19 18:35 55.68020 -3.07409 2952 ft 85 kts
2026-04-19 18:35 55.68577 -3.07298 2997 ft 80 kts
2026-04-19 18:35 55.69164 -3.07194 3019 ft 92 kts
2026-04-19 18:35 55.69846 -3.07102 3001 ft 99 kts
2026-04-19 18:36 55.70529 -3.07010 3008 ft 102 kts
2026-04-19 18:36 55.71241 -3.06920 3004 ft 101 kts
2026-04-19 18:36 55.71940 -3.06821 3002 ft 99 kts
2026-04-19 18:36 55.72634 -3.06724 3004 ft 102 kts
2026-04-19 18:37 55.73371 -3.06634 2928 ft 108 kts
2026-04-19 18:37 55.74125 -3.06538 2855 ft 109 kts
2026-04-19 18:37 55.74884 -3.06460 2792 ft 110 kts
2026-04-19 18:37 55.75620 -3.06365 2789 ft 103 kts
2026-04-19 18:38 55.76329 -3.06229 2733 ft 103 kts
2026-04-19 18:38 55.77057 -3.06102 2695 ft 108 kts
2026-04-19 18:38 55.77820 -3.05974 2641 ft 110 kts
2026-04-19 18:38 55.78582 -3.05835 2589 ft 109 kts
2026-04-19 18:39 55.79333 -3.05692 2532 ft 108 kts
2026-04-19 18:39 55.80081 -3.05545 2481 ft 109 kts
2026-04-19 18:39 55.80837 -3.05390 2430 ft 110 kts
2026-04-19 18:39 55.81597 -3.05235 2379 ft 110 kts
2026-04-19 18:40 55.82361 -3.05079 2329 ft 110 kts
2026-04-19 18:40 55.83122 -3.04921 2304 ft 109 kts
2026-04-19 18:40 55.83865 -3.04771 2301 ft 106 kts
2026-04-19 18:40 55.84591 -3.04620 2296 ft 104 kts
2026-04-19 18:41 55.85302 -3.04462 2297 ft 105 kts
2026-04-19 18:41 55.86033 -3.04308 2302 ft 106 kts
2026-04-19 18:41 55.86767 -3.04162 2301 ft 106 kts
2026-04-19 18:41 55.87501 -3.04007 2300 ft 106 kts
2026-04-19 18:42 55.88239 -3.03848 2302 ft 107 kts
2026-04-19 18:42 55.88979 -3.03691 2301 ft 107 kts
2026-04-19 18:42 55.89719 -3.03528 2300 ft 107 kts
2026-04-19 18:42 55.90460 -3.03374 2303 ft 107 kts
2026-04-19 18:43 55.91204 -3.03268 2299 ft 107 kts
2026-04-19 18:43 55.91952 -3.03167 2297 ft 108 kts
2026-04-19 18:43 55.92697 -3.03065 2299 ft 107 kts
2026-04-19 18:43 55.93433 -3.02960 2297 ft 106 kts
2026-04-19 18:44 55.94165 -3.02856 2296 ft 106 kts
2026-04-19 18:44 55.94888 -3.02765 2293 ft 105 kts 356°
2026-04-19 18:44 55.95558 -3.03181 2296 ft 102 kts 336°
2026-04-19 18:44 55.96213 -3.03658 2295 ft 101 kts 336°
2026-04-19 18:45 55.96866 -3.04138 2295 ft 101 kts 338°
2026-04-19 18:45 55.97517 -3.04614 2292 ft 101 kts 338°
2026-04-19 18:45 55.98168 -3.05085 2293 ft 101 kts 338°
2026-04-19 18:45 55.98820 -3.05560 2293 ft 101 kts 337°
2026-04-19 18:46 55.99254 -3.05873 2296 ft 101 kts 337°
2026-04-19 18:46 55.99911 -3.06336 2296 ft 102 kts 338°
2026-04-19 18:46 56.00568 -3.06810 2294 ft 102 kts 337°
2026-04-19 18:46 56.01220 -3.07290 2294 ft 101 kts 337°
2026-04-19 18:47 56.01870 -3.07768 2295 ft 101 kts 337°
2026-04-19 18:47 56.02506 -3.08291 2294 ft 101 kts 334°
2026-04-19 18:47 56.03126 -3.08867 2291 ft 99 kts 331°
2026-04-19 18:47 56.03732 -3.09447 2292 ft 99 kts 331°
2026-04-19 18:48 56.04338 -3.10024 2290 ft 98 kts 331°
2026-04-19 18:48 56.04937 -3.10604 2293 ft 98 kts 331°
2026-04-19 18:48 56.05535 -3.11185 2294 ft 98 kts 331°
2026-04-19 18:48 56.06132 -3.11767 2280 ft 99 kts 332°
2026-04-19 18:49 56.06737 -3.12366 2229 ft 100 kts 331°
2026-04-19 18:49 56.07345 -3.12973 2178 ft 100 kts 331°
2026-04-19 18:49 56.07951 -3.13576 2124 ft 99 kts 331°
2026-04-19 18:49 56.08552 -3.14179 2072 ft 99 kts 330°
2026-04-19 18:50 56.09142 -3.14816 2019 ft 99 kts 328°
2026-04-19 18:50 56.09710 -3.15528 1965 ft 100 kts 325°
2026-04-19 18:50 56.10254 -3.16278 1911 ft 100 kts 322°
2026-04-19 18:50 56.10797 -3.17051 1846 ft 101 kts 322°
2026-04-19 18:51 56.11360 -3.17845 1742 ft 104 kts 322°
2026-04-19 18:51 56.11921 -3.18669 1638 ft 104 kts 320°
2026-04-19 18:51 56.12476 -3.19500 1533 ft 104 kts 320°
2026-04-19 18:52 56.13545 -3.21052 1494 ft 94 kts 320°
2026-04-19 18:52 56.14045 -3.21770 1493 ft 90 kts 320°
2026-04-19 18:52 56.14533 -3.22473 1493 ft 89 kts 324°
2026-04-19 18:52 56.15102 -3.22330 1508 ft 94 kts 35°
2026-04-19 18:53 56.15582 -3.21557 1508 ft 94 kts 45°
2026-04-19 18:53 56.15975 -3.20601 1505 ft 97 kts 55°
2026-04-19 18:53 56.16286 -3.19514 1501 ft 97 kts 58°
2026-04-19 18:53 56.16588 -3.18445 1493 ft 95 kts 59°
2026-04-19 18:54 56.16857 -3.17362 1489 ft 94 kts 48°
2026-04-19 18:54 56.17424 -3.17228 1177 ft 88 kts 337°
2026-04-19 18:54 56.17961 -3.17611 1055 ft 72 kts 336°
2026-04-19 18:54 56.18401 -3.17871 1003 ft 67 kts 340°
2026-04-19 18:55 56.18849 -3.18112 1026 ft 69 kts 337°
2026-04-19 18:55 56.19309 -3.18465 1011 ft 75 kts 314°
2026-04-19 18:55 56.19209 -3.19264 900 ft 64 kts 237°
2026-04-19 18:55 56.18948 -3.19923 749 ft 66 kts 245°
2026-04-19 18:56 56.18727 -3.20689 610 ft 73 kts 246°
2026-04-19 18:56 56.18503 -3.21448 429 ft 64 kts 245°
2026-04-19 18:56 56.18363 -3.21922 403 ft 19 kts 242°
2026-04-19 18:56 56.18307 -3.22092 406 ft 14 kts 217°
2026-04-19 18:57 56.18241 -3.22126 403 ft 15 kts 237°
2026-04-19 18:57 56.18172 -3.22351 403 ft 20 kts 238°
2026-04-19 18:57 56.18146 -3.22479 401 ft 9 kts 313°
2026-04-19 18:57 56.18202 -3.22434 402 ft 11 kts 63°
2026-04-19 18:58 56.18242 -3.22302 402 ft 14 kts 55°
2026-04-19 18:58 56.18305 -3.22126 406 ft 17 kts 64°
2026-04-19 18:58 56.18357 -3.21943 402 ft 16 kts 61°
2026-04-19 18:58 56.18405 -3.21838 403 ft 9 kts 335°
2026-04-19 18:59 56.18449 -3.21836 405 ft 5 kts 337°
2026-04-19 18:59 56.18454 -3.21840 407 ft 0 kts 330°